This is the latest recevied weather packets stored in our database for station/object F5MAP-5. If no packets are shown the sender has not sent any weather packets the latest 10 day(s).
| Time | Temp. | Humidity | Pressure | Rain* | Wind** | Luminosity | Snow |
|---|---|---|---|---|---|---|---|
| 1778003531 | 16.11° C | 83% | 1007.8 hPa | 0 mm | - | 7 W/m² | - |
| 1778002931 | 16.11° C | 84% | 1007.8 hPa | 0 mm | - | 11 W/m² | - |
| 1778002333 | 16.11° C | 84% | 1007.7 hPa | 0 mm | - | 28 W/m² | - |
| 1778001731 | 16.11° C | 84% | 1007.7 hPa | 0 mm | - | 44 W/m² | - |
| 1778001131 | 16.11° C | 84% | 1007.6 hPa | 0 mm | - | 62 W/m² | - |
| 1778000531 | 16.11° C | 84% | 1007.5 hPa | 0 mm | - | 40 W/m² | - |
| 1777999931 | 16.67° C | 85% | 1007.6 hPa | 0 mm | - | 44 W/m² | - |
| 1777999331 | 16.67° C | 85% | 1007.8 hPa | 0 mm | - | 39 W/m² | - |
| 1777998731 | 16.67° C | 85% | 1007.7 hPa | 0 mm | - | 72 W/m² | - |
| 1777998131 | 16.67° C | 85% | 1007.7 hPa | 0 mm | - | 86 W/m² | - |
| 1777997531 | 16.11° C | 86% | 1007.6 hPa | 0 mm | - | 116 W/m² | - |
| 1777996930 | 16.67° C | 86% | 1007.6 hPa | 0 mm | - | 130 W/m² | - |
| 1777996331 | 16.67° C | 87% | 1007.6 hPa | 0 mm | - | 135 W/m² | - |
| 1777995731 | 16.67° C | 87% | 1007.6 hPa | 0 mm | - | 120 W/m² | - |
| 1777995131 | 16.67° C | 88% | 1007.6 hPa | 0 mm | - | 137 W/m² | - |
| 1777994531 | 16.67° C | 86% | 1007.6 hPa | 0 mm | - | 207 W/m² | - |
| 1777993931 | 16.67° C | 85% | 1007.8 hPa | 0 mm | - | 190 W/m² | - |
| 1777993331 | 16.67° C | 83% | 1007.7 hPa | 0 mm | - | 156 W/m² | - |
| 1777992731 | 17.22° C | 82% | 1007.7 hPa | 0 mm | - | 109 W/m² | - |
| 1777992131 | 17.78° C | 80% | 1007.6 hPa | 0 mm | - | 63 W/m² | - |
| 1777991531 | 18.33° C | 78% | 1007.6 hPa | 0 mm | - | 30 W/m² | - |
| 1777990930 | 18.89° C | 75% | 1008 hPa | 0 mm | - | 12 W/m² | - |
| 1777990330 | 19.44° C | 72% | 1008.2 hPa | 0 mm | - | 9 W/m² | - |
| 1777989730 | 19.44° C | 65% | 1007.5 hPa | 0 mm | - | 56 W/m² | - |
| 1777989131 | 19.44° C | 66% | 1007.5 hPa | 0 mm | - | 120 W/m² | - |
* Rain latest hour (hover to see other rain measurements)
** Current wind speed in m/s (hover to see current wind gust speed)